Regional Weather Roundup
Issued by NWS

Home | Current Version | Previous Version | Text Only | Print | Product List | Glossary On
Versions: 1 2 3 4 5 6 7 8 9 10 11 12 13 14 15 16 17 18 19 20 21 22 23 24 25 26 27 28 29 30 31 32 33 34 35 36 37 38 39 40 41 42 43 44 45 46 47 48 49 50
000
ASUS44 KFWD 271215
RWRTX
NORTH TEXAS HOURLY WEATHER ROUNDUP
NATIONAL WEATHER SERVICE FORT WORTH TX
600 AM CST MON FEB 27 2017

NOTE: "FAIR" INDICATES FEW OR NO CLOUDS BELOW 12,000 FEET WITH NO
SIGNIFICANT WEATHER AND/OR OBSTRUCTIONS TO VISIBILITY.

TXZ118-119-271300-
DALLAS/FORT WORTH METROPLEX

CITY           SKY/WX    TMP DP  RH WIND       PRES   REMARKS
DFW AIRPORT    CLOUDY    62  60  93 E3        29.91R
6HR MIN TEMP:  59; 6HR MAX TEMP:  62;

DALLAS LOVE    CLOUDY    63  59  87 SE7       29.93R
6HR MIN TEMP:  60; 6HR MAX TEMP:  63;

FTW MEACHAM    CLOUDY    61  58  90 S6        29.92R
6HR MIN TEMP:  60; 6HR MAX TEMP:  64;

DAL-EXECUTIVE  CLOUDY    60  59  96 SE5       29.92R
6HR MIN TEMP:  57; 6HR MAX TEMP:  61;

FTW-ALLIANCE   CLOUDY    59  56  89 CALM      29.92R
6HR MIN TEMP:  58; 6HR MAX TEMP:  60;

FTW-NAS-JRB    MOCLDY    61  59  93 S7        29.92R
6HR MIN TEMP:  60; 6HR MAX TEMP:  64;

FTW-SPINKS     CLOUDY    61  60  94 S7        29.94R FOG
6HR MIN TEMP:  56; 6HR MAX TEMP:  64;

ARLINGTON      CLOUDY    62  60  93 S7        29.93R
6HR MIN TEMP:  57; 6HR MAX TEMP:  62;

GRAND PRAIRIE  CLOUDY    62  62 100 S5        29.93S
6HR MIN TEMP:  58; 6HR MAX TEMP:  62;

ADDISON        CLOUDY    61  57  88 E6        29.94S
MESQUITE       CLOUDY    60  58  94 S3        29.94R
6HR MIN TEMP:  58; 6HR MAX TEMP:  60;

LANCASTER      CLOUDY    56  55  97 CALM      29.95R FOG
6HR MIN TEMP:  56; 6HR MAX TEMP:  59;

$$

TXZ091>094-102>105-117-120-121-131>134-271300-
NORTH CENTRAL TEXAS

CITY           SKY/WX    TMP DP  RH WIND       PRES   REMARKS
SHRMAN/DENISON CLOUDY    51  48  89 E8        29.95S
6HR MIN TEMP:  51; 6HR MAX TEMP:  54;

GAINESVILLE    CLOUDY    54  52  94 SE7       29.95S FOG
6HR MIN TEMP:  52; 6HR MAX TEMP:  55;

BOWIE          FOG       58  58 100 SE5       29.91R VSB 1/2
6HR MIN TEMP:  55; 6HR MAX TEMP:  59;

BRIDGEPORT     CLOUDY    59  59 100 SE3       29.93S FOG
6HR MIN TEMP:  54; 6HR MAX TEMP:  61;

DECATUR        FOG       57  56  97 E3        29.92S VSB 1/4
6HR MIN TEMP:  55; 6HR MAX TEMP:  59;

DENTON         CLOUDY    59  57  93 E6        29.92S
6HR MIN TEMP:  55; 6HR MAX TEMP:  60;

MCKINNEY       CLOUDY    57  57 100 E6        29.94S
6HR MIN TEMP:  51; 6HR MAX TEMP:  57;

BONHAM         CLOUDY    52  48  87 E6        29.97R
GREENVILLE     CLOUDY    57  55  94 CALM      29.96S FOG
ROCKWALL       CLOUDY    61  60  98 CALM      29.94R
6HR MIN TEMP:  56; 6HR MAX TEMP:  61;

TERRELL        CLOUDY    61  59  93 S3        29.94S
6HR MIN TEMP:  58; 6HR MAX TEMP:  61;

WAXAHACHIE     CLOUDY    60  60 100 SE6       29.95R FOG
6HR MIN TEMP:  55; 6HR MAX TEMP:  60;

GRANBURY       CLOUDY    61  59  94 SE3       29.93R FOG
6HR MIN TEMP:  57; 6HR MAX TEMP:  63;

$$

TXZ083>090-098>101-113>116-127>130-139>142-154-155-271300-
WESTERN NORTH TEXAS

CITY           SKY/WX    TMP DP  RH WIND       PRES   REMARKS
WICHITA FALLS  CLOUDY    54  53  97 S6        29.89R
6HR MIN TEMP:  42; 6HR MAX TEMP:  54;

WF-KICKAPOO    CLOUDY    55  54  97 S3        29.90S
6HR MIN TEMP:  46; 6HR MAX TEMP:  55;

VERNON         CLOUDY    47  39  73 E5        29.89S
6HR MIN TEMP:  36; 6HR MAX TEMP:  63;

ABILENE        CLOUDY    52  52 100 S8        29.91R
6HR MIN TEMP:  46; 6HR MAX TEMP:  52;

ABILENE-DYESS  MOCLDY    49  49 100 S8        29.89S
6HR MIN TEMP:  41; 6HR MAX TEMP:  51;

GRAHAM         CLOUDY    61  61 100 S8        29.89R
BRECKENRIDGE   CLOUDY    61  61 100 S8G16     29.90S FOG
6HR MIN TEMP:  54; 6HR MAX TEMP:  61;

CISCO          CLOUDY    59  59 100 S9        29.91S FOG
RANGER         CLOUDY    59  59 100 S6        29.92S FOG
MINERAL WELLS  MOCLDY    57  56  96 SE8       29.90S FOG
6HR MIN TEMP:  55; 6HR MAX TEMP:  58;

STEPHENVILLE   CLOUDY    62  60  94 CALM      29.95R
6HR MIN TEMP:  57; 6HR MAX TEMP:  62;

COMANCHE       CLOUDY    60  60 100 E3        29.92S FOG
6HR MIN TEMP:  54; 6HR MAX TEMP:  61;

BROWNWOOD      FOG       61  61 100 S5        29.92R VSB 1/4
COLEMAN        FOG       55  54  98 CALM      29.92R VSB 1/4
6HR MIN TEMP:  50; 6HR MAX TEMP:  55;

$$

TXZ143>147-156>162-174-175-271300-
CENTRAL TEXAS

CITY           SKY/WX    TMP DP  RH WIND       PRES   REMARKS
WACO           CLOUDY    62  62 100 SE5       29.93R
6HR MIN TEMP:  62; 6HR MAX TEMP:  66;

WACO-MCGREGOR  MOCLDY    62  62 100 S7        29.93R
6HR MIN TEMP:  62; 6HR MAX TEMP:  64;

HILLSBORO      CLOUDY    64  63  96 SE7       29.94R
6HR MIN TEMP:  62; 6HR MAX TEMP:  64;

CORSICANA      CLOUDY    61  61 100 SE5       29.96R
6HR MIN TEMP:  59; 6HR MAX TEMP:  62;

MEXIA          CLOUDY    64  63  97 S6        29.95R
6HR MIN TEMP:  62; 6HR MAX TEMP:  64;

HEARNE         CLOUDY    65  65 100 SE3       29.97R
6HR MIN TEMP:  64; 6HR MAX TEMP:  65;

CAMERON        CLOUDY    65  63  94 SE3       29.95R
6HR MIN TEMP:  65; 6HR MAX TEMP:  66;

TEMPLE         CLOUDY    64  64 100 S9        29.94S
6HR MIN TEMP:  64; 6HR MAX TEMP:  65;

KILLEEN        MOCLDY    63  62  98 SE7       29.92R FOG
6HR MIN TEMP:  62; 6HR MAX TEMP:  64;

KILLEEN-SKYLRK CLOUDY    65  63  93 S8        29.93R
6HR MIN TEMP:  64; 6HR MAX TEMP:  65; 6HR PCP: TRACE;

FORT HOOD      MOCLDY    62  62 100 S7        29.90R
6HR MIN TEMP:  62; 6HR MAX TEMP:  63;

GATESVILLE     CLOUDY    63  63 100 CALM      29.95R FOG
HAMILTON       FOG       63  63 100 S8        29.93R VSB 1
6HR MIN TEMP:  57; 6HR MAX TEMP:  64;

LAMPASAS       CLOUDY    62  61  98 CALM      29.92R FOG
6HR MIN TEMP:  58; 6HR MAX TEMP:  62;

$$

TXZ095>097-106>112-122>126-135>138-148>153-164>167-271300-
EAST TEXAS

CITY           SKY/WX    TMP DP  RH WIND       PRES   REMARKS
PARIS          CLOUDY    50  46  87 E10       29.99S
6HR MIN TEMP:  48; 6HR MAX TEMP:  50;

SULPHUR SPRNGS CLOUDY    57  56  97 E9        29.99S
6HR MIN TEMP:  53; 6HR MAX TEMP:  57;

MOUNT PLEASANT CLOUDY    55  55 100 E3        30.01R
6HR MIN TEMP:  52; 6HR MAX TEMP:  55; 6HR PCP:  0.01;

GILMER           N/A     55  54  98 CALM      29.99R THUNDER
6HR MIN TEMP:  54; 6HR MAX TEMP:  56; 6HR PCP:  0.04;

MINEOLA        CLOUDY    57  57 100 E3        29.96S FOG
TYLER          CLOUDY    64  62  93 SE5       29.97R
6HR MIN TEMP:  63; 6HR MAX TEMP:  65; 6HR PCP:  0.01;

LONGVIEW       CLOUDY    61  61 100 NE3       29.98R
6HR MIN TEMP:  61; 6HR MAX TEMP:  65; 6HR PCP:  0.02;

MARSHALL       CLOUDY    55  53  93 CALM      30.02S
6HR MIN TEMP:  55; 6HR MAX TEMP:  57; 6HR PCP:  0.13;

PALESTINE      CLOUDY    65  64  96 CALM      29.98R
JACKSONVILLE   CLOUDY    63  63  99 S6        30.00R FOG
HENDERSON      CLOUDY    63  63  98 CALM      30.00R
6HR MIN TEMP:  63; 6HR MAX TEMP:  64;

CENTER         CLOUDY    67  66  95 E6        30.00S
6HR MIN TEMP:  67; 6HR MAX TEMP:  68;

NACOGDOCHES    CLOUDY    52 N/A N/A SE3       29.98R
6HR MIN TEMP:  52; 6HR MAX TEMP:  64;

LUFKIN         CLOUDY    65  63  93 SE6       29.99R
6HR MIN TEMP:  64; 6HR MAX TEMP:  65;

$$

SUPPLEMENTAL OBSERVATIONS (CENTRAL)

CITY           SKY/WX    TMP DP  RH WIND       PRES   REMARKS
DENISON DAM      N/A     52  48  87 E5          N/A
CADDO GRASSLND   N/A     52  46  82 S2          N/A
PAT MAYSE LAKE   N/A     50  48  93 E3          N/A
ATHENS           N/A     64  59  82 SE3         N/A
M



USA.gov is the U.S. government's official web portal to all federal, state and local government web resources and services.